Retour au catalogue

STARLINK-36763

ActifCommunicationsVLEO
NORAD 67906·PAYLOAD·🇺🇸 United States

Lancé Feb 22, 2026 depuis Vandenberg Space Force Base

Loading…

Prochains Passages (prochaines 24 heures)

TLE

FraisSource: CelesTrak SupGP

Époque: Sep 14, 2026, 23:00 UTC

1 67906C 26036C   26257.95881944  .00034655  00000+0  12555-2 0  2574
2 67906  42.9991 256.7014 0001362 262.3384 133.5549 15.27554497    19

Suivez STARLINK-36763 en temps réel avec AllMySat

Download on the App Store